sat.trackr.live / text

‹ back to catalog

STARLINK-1456

NORAD 45673 · 2020-035S

PAYLOAD ACTIVE UNKNOWN

§ Identity

Operator
Country
US
Launch date
2020-06-04
Launch site
AFETR
Launch vehicle
Mass (kg)
RCS (m²)

Purposes: comms

External: N2YO · Heavens-Above · Gunter

§ Orbital elements

Epoch: 2026-05-24T22:53:03.895584Z

Period
92.11 min
Inclination
53.0420°
Eccentricity
0.0005924
Mean motion
15.63410733 rev/d
Perigee alt
373.8 km
Apogee alt
381.8 km
Semi-major
6,756.0 km
B*
9.1721e-4
RAAN
36.6310°
Arg perigee
101.7094°
Mean anomaly
258.4585°
Rev number
33,090

§ Raw data

STARLINK-14561 45673U 20035S   26144.95351731  .00086616  00000+0  91721-3 0  99952 45673  53.0420  36.6310 0005924 101.7094 258.4585 15.63410733330907

JSON: /api/v1/satellites/45673 · /tle

For live sub-satellite position, see the globe view (requires WebGL).

§ Visibility from observer

Set your observer location to see the next 7 days of passes ≥ 10°. The values pass through the URL so the page stays shareable.

No JS? Fill the form by hand. The geolocation button needs JavaScript.